Thermopolis, WY

6:05 AM MDT on April 28, 2017 (GMT -0600)
Thermopolis

Weather History for KTBX - November, 2012

Change the Weather History Date:

Sunday, November 4, 2012

  Actual Average (KWRL) Record (KWRL)
Temperature  
Mean Temperature 42 °F -  
Max Temperature 46 °F 53 °F 75 °F (1999)
Min Temperature 39 °F 24 °F -1 °F (1991)
Degree Days  
Heating Degree Days 22    
Moisture  
Dew Point 22 °F    
Average Humidity 44    
Maximum Humidity 65    
Minimum Humidity 27    
Precipitation  
Precipitation 0.00 in - - ()
Sea Level Pressure  
Sea Level Pressure 30.36 in    
Wind  
Wind Speed 8 mph ()    
Max Wind Speed 18 mph    
Max Gust Speed 16 mph    
Visibility 10.0 miles    
Events      
Averages and records for this station are not official NWS values.
T = Trace of Precipitation, MM = Missing Value Source: Averaged Metar Reports

Daily Weather History Graph

Daily Weather History Graph

Search for Another Location

Airport or City:

Trip Planner

Search our weather history database for the weather conditions in past years. The results will help you decide how hot, cold, wet, or windy it might be!

Date:

Astronomy

Nov. 04, 2012 Rise Set
Actual Time 6:52 AM MST 4:59 PM MST
Civil Twilight 6:22 AM MST 5:29 PM MST
Nautical Twilight 5:48 AM MST 6:03 PM MST
Astronomical Twilight 5:15 AM MST 6:36 PM MST
Moon 9:39 PM MST (11/4) 11:40 AM MST (11/4)
Length of Visible Light 11h 06m
Length of Day
10h 06m
Waning Gibbous, 71% of the Moon is Illuminated
Nov 4
Waning Gibbous
Nov 6
Last Quarter
Nov 13
New
Nov 20
First Quarter
Nov 28
Full

Hourly Weather History & Observations

Time (MST) Temp. Windchill Dew Point Humidity Pressure Visibility Wind Dir Wind Speed Gust Speed Precip Events Conditions
12:15 AM 44.6 °F 42.2 °F 12.2 °F 27% 30.26 in 10.0 mi West 4.6 mph - N/A   Mostly Cloudy
12:35 AM 42.8 °F 38.0 °F 14.0 °F 31% 30.27 in 10.0 mi WNW 8.1 mph - N/A   Scattered Clouds
12:55 AM 42.8 °F 37.0 °F 14.0 °F 31% 30.27 in 10.0 mi WNW 10.4 mph - N/A   Clear
1:15 AM 42.8 °F 36.2 °F 14.0 °F 31% 30.27 in 10.0 mi NW 12.7 mph - N/A   Scattered Clouds
1:35 AM 44.6 °F 38.4 °F 14.0 °F 29% 30.28 in 10.0 mi NW 12.7 mph - N/A   Mostly Cloudy
1:55 AM 44.6 °F 41.4 °F 14.0 °F 29% 30.27 in 10.0 mi NNW 5.8 mph - N/A   Overcast
1:15 AM 44.6 °F 42.2 °F 12.2 °F 27% 30.28 in 10.0 mi West 4.6 mph - N/A   Overcast
1:35 AM 44.6 °F 43.1 °F 14.0 °F 29% 30.28 in 10.0 mi SW 3.5 mph - N/A   Overcast
2:15 AM 44.6 °F 38.8 °F 14.0 °F 29% 30.27 in 10.0 mi South 11.5 mph - N/A   Overcast
2:35 AM 42.8 °F 36.2 °F 17.6 °F 36% 30.27 in 10.0 mi SSW 12.7 mph - N/A   Mostly Cloudy
2:55 AM 42.8 °F 36.6 °F 19.4 °F 39% 30.28 in 10.0 mi WSW 11.5 mph - N/A   Scattered Clouds
3:15 AM 42.8 °F 34.8 °F 21.2 °F 42% 30.27 in 10.0 mi WSW 17.3 mph - N/A   Clear
3:35 AM 42.8 °F 35.4 °F 21.2 °F 42% 30.27 in 10.0 mi WSW 15.0 mph - N/A   Clear
4:15 AM 44.6 °F 42.2 °F 19.4 °F 37% 30.28 in 10.0 mi West 4.6 mph - N/A   Clear
4:35 AM 44.6 °F 42.2 °F 17.6 °F 34% 30.28 in 10.0 mi WSW 4.6 mph - N/A   Clear
4:55 AM 44.6 °F 43.1 °F 17.6 °F 34% 30.28 in 10.0 mi SSW 3.5 mph - N/A   Clear
5:15 AM 44.6 °F 41.4 °F 17.6 °F 34% 30.28 in 10.0 mi SSW 5.8 mph - N/A   Clear
5:35 AM 42.8 °F 38.6 °F 19.4 °F 39% 30.28 in 10.0 mi SSW 6.9 mph - N/A   Clear
5:55 AM 44.6 °F 42.2 °F 19.4 °F 37% 30.28 in 10.0 mi West 4.6 mph - N/A   Scattered Clouds
6:15 AM 46.4 °F 43.5 °F 19.4 °F 34% 30.28 in 10.0 mi WNW 5.8 mph - N/A   Scattered Clouds
6:35 AM 44.6 °F 41.4 °F 19.4 °F 37% 30.29 in 10.0 mi NW 5.8 mph - N/A   Overcast
6:55 AM 44.6 °F 41.4 °F 17.6 °F 34% 30.29 in 10.0 mi NW 5.8 mph - N/A   Overcast
7:15 AM 44.6 °F 41.4 °F 17.6 °F 34% 30.30 in 10.0 mi NW 5.8 mph - N/A   Overcast
7:35 AM 44.6 °F 40.7 °F 17.6 °F 34% 30.31 in 10.0 mi NW 6.9 mph - N/A   Overcast
7:55 AM 44.6 °F 41.4 °F 17.6 °F 34% 30.31 in 10.0 mi NW 5.8 mph - N/A   Mostly Cloudy
8:15 AM 42.8 °F 40.1 °F 17.6 °F 36% 30.33 in 10.0 mi NW 4.6 mph - N/A   Scattered Clouds
8:35 AM 42.8 °F 38.6 °F 17.6 °F 36% 30.33 in 10.0 mi WNW 6.9 mph - N/A   Clear
8:55 AM 42.8 °F 40.1 °F 17.6 °F 36% 30.33 in 10.0 mi NW 4.6 mph - N/A   Scattered Clouds
9:15 AM 42.8 °F 39.3 °F 17.6 °F 36% 30.34 in 10.0 mi NW 5.8 mph - N/A   Scattered Clouds
9:35 AM 42.8 °F 38.0 °F 17.6 °F 36% 30.35 in 10.0 mi NNW 8.1 mph - N/A   Clear
9:55 AM 44.6 °F 40.7 °F 17.6 °F 34% 30.36 in 10.0 mi NNW 6.9 mph - N/A   Clear
10:15 AM 44.6 °F 39.2 °F 17.6 °F 34% 30.36 in 10.0 mi North 10.4 mph - N/A   Clear
10:35 AM 44.6 °F 39.7 °F 19.4 °F 37% 30.37 in 10.0 mi North 9.2 mph - N/A   Clear
10:55 AM 44.6 °F 40.2 °F 19.4 °F 37% 30.37 in 10.0 mi North 8.1 mph - N/A   Clear
11:15 AM 46.4 °F 42.4 °F 21.2 °F 37% 30.38 in 10.0 mi North 8.1 mph - N/A   Clear
11:35 AM 46.4 °F 42.4 °F 21.2 °F 37% 30.38 in 10.0 mi North 8.1 mph - N/A   Clear
11:55 AM 46.4 °F 41.5 °F 21.2 °F 37% 30.38 in 10.0 mi North 10.4 mph 16.1 mph N/A   Clear
12:15 PM 46.4 °F 40.7 °F 21.2 °F 37% 30.38 in 10.0 mi North 12.7 mph - N/A   Clear
12:35 PM 46.4 °F 40.7 °F 23.0 °F 40% 30.39 in 10.0 mi North 12.7 mph - N/A   Clear
12:55 PM 44.6 °F 38.4 °F 23.0 °F 43% 30.38 in 10.0 mi NNW 12.7 mph - N/A   Clear
1:15 PM 46.4 °F 41.1 °F 23.0 °F 40% 30.38 in 10.0 mi NW 11.5 mph - N/A   Clear
1:35 PM 46.4 °F 40.7 °F 23.0 °F 40% 30.39 in 10.0 mi NNW 12.7 mph - N/A   Clear
1:55 PM 46.4 °F 40.7 °F 23.0 °F 40% 30.39 in 10.0 mi NNW 12.7 mph - N/A   Clear
2:15 PM 46.4 °F 40.4 °F 24.8 °F 43% 30.39 in 10.0 mi North 13.8 mph - N/A   Clear
2:35 PM 44.6 °F 38.1 °F 24.8 °F 46% 30.39 in 10.0 mi NNW 13.8 mph - N/A   Clear
2:55 PM 44.6 °F 37.8 °F 24.8 °F 46% 30.39 in 10.0 mi NNW 15.0 mph - N/A   Clear
3:15 PM 44.6 °F 38.4 °F 26.6 °F 49% 30.39 in 10.0 mi NNW 12.7 mph - N/A   Clear
3:35 PM 44.6 °F 38.4 °F 24.8 °F 46% 30.39 in 10.0 mi NNW 12.7 mph - N/A   Clear
3:55 PM 44.6 °F 37.8 °F 26.6 °F 49% 30.40 in 10.0 mi NNW 15.0 mph - N/A   Clear
4:15 PM 44.6 °F 36.9 °F 26.6 °F 49% 30.40 in 10.0 mi NNW 18.4 mph - N/A   Clear
4:35 PM 42.8 °F 35.4 °F 28.4 °F 57% 30.41 in 10.0 mi NNW 15.0 mph - N/A   Clear
4:55 PM 42.8 °F 36.2 °F 26.6 °F 53% 30.41 in 10.0 mi NNW 12.7 mph - N/A   Clear
5:15 PM 41.0 °F 34.3 °F 26.6 °F 57% 30.42 in 10.0 mi NNW 11.5 mph - N/A   Clear
5:35 PM 39.2 °F 30.8 °F 26.6 °F 61% 30.41 in 10.0 mi NNW 15.0 mph - N/A   Clear
5:55 PM 41.0 °F 32.8 °F 26.6 °F 57% 30.42 in 10.0 mi North 16.1 mph - N/A   Clear
6:15 PM 41.0 °F 33.5 °F 28.4 °F 61% 30.42 in 10.0 mi NNW 13.8 mph - N/A   Clear
6:35 PM 41.0 °F 33.9 °F 28.4 °F 61% 30.43 in 10.0 mi NNW 12.7 mph - N/A   Clear
6:55 PM 41.0 °F 33.9 °F 28.4 °F 61% 30.44 in 10.0 mi NNW 12.7 mph - N/A   Clear
7:15 PM 41.0 °F 34.3 °F 28.4 °F 61% 30.44 in 10.0 mi NNW 11.5 mph - N/A   Clear
7:35 PM 41.0 °F 33.9 °F 28.4 °F 61% 30.44 in 10.0 mi NNW 12.7 mph - N/A   Clear
7:55 PM 41.0 °F 34.3 °F 28.4 °F 61% 30.44 in 10.0 mi NNW 11.5 mph - N/A   Clear
8:15 PM 41.0 °F 33.9 °F 28.4 °F 61% 30.44 in 10.0 mi NNW 12.7 mph - N/A   Clear
8:35 PM 41.0 °F 34.7 °F 28.4 °F 61% 30.45 in 10.0 mi NNW 10.4 mph - N/A   Clear
8:55 PM 41.0 °F 35.8 °F 28.4 °F 61% 30.44 in 10.0 mi NNW 8.1 mph - N/A   Clear
9:15 PM 41.0 °F 38.0 °F 28.4 °F 61% 30.45 in 10.0 mi North 4.6 mph - N/A   Clear
9:35 PM 41.0 °F 36.4 °F 28.4 °F 61% 30.44 in 10.0 mi North 6.9 mph - N/A   Clear
9:55 PM 39.2 °F - 28.4 °F 65% 30.44 in 10.0 mi Calm Calm - N/A   Clear
10:15 PM 41.0 °F - 30.2 °F 65% 30.44 in 10.0 mi Calm Calm - N/A   Clear
10:35 PM 41.0 °F - 30.2 °F 65% 30.45 in 10.0 mi Calm Calm - N/A   Clear
10:55 PM 41.0 °F - 30.2 °F 65% 30.45 in 10.0 mi Calm Calm - N/A   Clear